WX2P-13 Weather Reports


Display with metric or nautical units.
time (UTC)temp
F
wind
direction
speed
MPH
gust
MPH
rain 1hr
in
rain 24hr
in
rain mn
in
humidity
%
barometer
mb
20260504231723 78 278 1.0 1.0 0.00 0.00 0.00 56 1014.5
20260504231219 79 297 3.0 3.0 0.00 0.00 0.00 54 1014.5
20260504230715 79 216 1.0 3.0 0.00 0.00 0.00 54 1014.2
20260504230214 80 189 1.0 2.0 0.00 0.00 0.00 51 1014.0
20260504225712 82 267 1.0 2.0 0.00 0.00 0.00 49 1014.2
20260504225208 82 178 0.0 2.0 0.00 0.00 0.00 47 1014.3
20260504224705 82 176 1.0 1.0 0.00 0.00 0.00 45 1014.4
20260504224203 82 186 0.0 1.0 0.00 0.00 0.00 46 1014.5
20260504223659 83 232 1.0 2.0 0.00 0.00 0.00 44 1014.2
20260504223154 83 193 1.0 2.0 0.00 0.00 0.00 45 1014.3
20260504222652 84 38 0.0 1.0 0.00 0.00 0.00 45 1014.3
20260504222148 83 212 2.0 2.0 0.00 0.00 0.00 45 1014.3
20260504221646 82 223 1.0 2.0 0.00 0.00 0.00 46 1014.3
20260504221143 83 299 3.0 3.0 0.00 0.00 0.00 46 1014.3
20260504220639 85 278 1.0 2.0 0.00 0.00 0.00 43 1014.3
20260504220137 84 160 0.0 2.0 0.00 0.00 0.00 44 1014.4
20260504215633 83 301 3.0 6.0 0.00 0.00 0.00 44 1014.7
20260504215131 83 141 1.0 2.0 0.00 0.00 0.00 39 1014.4
20260504214626 83 134 1.0 2.0 0.00 0.00 0.00 31 1014.4
20260504214123 84 214 1.0 3.0 0.00 0.00 0.00 32 1014.6
20260504213619 84 320 2.0 2.0 0.00 0.00 0.00 39 1014.3
20260504213116 84 85 0.0 2.0 0.00 0.00 0.00 33 1014.7
20260504212612 83 71 1.0 2.0 0.00 0.00 0.00 34 1014.4
20260504212110 84 213 3.0 3.0 0.00 0.00 0.00 34 1014.6
20260504211607 84 225 2.0 3.0 0.00 0.00 0.00 34 1014.5
20260504211103 85 172 1.0 2.0 0.00 0.00 0.00 34 1014.7
20260504210601 84 139 0.0 2.0 0.00 0.00 0.00 37 1014.6
20260504210057 85 55 1.0 5.0 0.00 0.00 0.00 36 1014.8
20260504205555 84 194 1.0 5.0 0.00 0.00 0.00 35 1014.8
20260504205053 84 77 3.0 3.0 0.00 0.00 0.00 37 1014.8
20260504204550 84 182 1.0 3.0 0.00 0.00 0.00 37 1015.0
20260504204050 84 206 1.0 2.0 0.00 0.00 0.00 37 1015.0
20260504203547 84 160 0.0 1.0 0.00 0.00 0.00 36 1014.9
20260504203044 84 139 2.0 2.0 0.00 0.00 0.00 36 1014.9
20260504202539 85 138 1.0 2.0 0.00 0.00 0.00 35 1015.0
20260504202037 84 70 1.0 1.0 0.00 0.00 0.00 37 1014.9
20260504201534 85 76 1.0 5.0 0.00 0.00 0.00 37 1014.8
20260504201032 85 29 2.0 3.0 0.00 0.00 0.00 36 1014.5
20260504200527 84 170 1.0 1.0 0.00 0.00 0.00 36 1014.8
20260504200025 84 113 0.0 2.0 0.00 0.00 0.00 35 1015.1
20260504195521 84 84 1.0 3.0 0.00 0.00 0.00 37 1015.3
20260504195017 84 124 3.0 3.0 0.00 0.00 0.00 38 1015.1
20260504194514 85 158 1.0 2.0 0.00 0.00 0.00 38 1015.2
20260504194009 85 128 2.0 3.0 0.00 0.00 0.00 38 1015.2
20260504193506 85 175 1.0 3.0 0.00 0.00 0.00 36 1015.3
20260504193005 85 117 1.0 2.0 0.00 0.00 0.00 37 1015.4
20260504192503 85 134 1.0 2.0 0.00 0.00 0.00 38 1015.2
20260504192001 85 318 2.0 2.0 0.00 0.00 0.00 38 1015.7
20260504191458 85 101 3.0 6.0 0.00 0.00 0.00 37 1015.6
20260504190954 84 53 1.0 3.0 0.00 0.00 0.00 39 1015.6
20260504190450 85 178 2.0 3.0 0.00 0.00 0.00 38 1015.9
20260504185946 84 236 1.0 3.0 0.00 0.00 0.00 38 1015.9
20260504185444 85 210 1.0 2.0 0.00 0.00 0.00 38 1015.8
20260504184939 84 157 3.0 5.0 0.00 0.00 0.00 38 1015.9
20260504184436 83 188 1.0 3.0 0.00 0.00 0.00 39 1016.1
20260504183931 84 134 3.0 3.0 0.00 0.00 0.00 38 1016.4
20260504183429 84 171 2.0 5.0 0.00 0.00 0.00 38 1016.4
20260504182927 83 117 2.0 5.0 0.00 0.00 0.00 37 1016.5
20260504182423 83 170 2.0 6.0 0.00 0.00 0.00 37 1016.6
20260504181921 84 133 1.0 5.0 0.00 0.00 0.00 38 1016.6
20260504181418 84 142 3.0 6.0 0.00 0.00 0.00 39 1016.5
20260504180917 83 126 2.0 3.0 0.00 0.00 0.00 39 1016.6
20260504180415 84 137 3.0 5.0 0.00 0.00 0.00 39 1016.5
20260504175913 83 184 1.0 3.0 0.00 0.00 0.00 39 1016.5
20260504175409 83 166 1.0 2.0 0.00 0.00 0.00 38 1016.8
20260504174907 83 243 2.0 3.0 0.00 0.00 0.00 41 1016.9
20260504174405 83 245 1.0 2.0 0.00 0.00 0.00 41 1016.8
20260504173902 83 211 1.0 5.0 0.00 0.00 0.00 40 1016.9
20260504173358 84 9 1.0 3.0 0.00 0.00 0.00 39 1017.0
20260504172855 84 279 1.0 3.0 0.00 0.00 0.00 39 1017.2
20260504172352 84 131 2.0 5.0 0.00 0.00 0.00 39 1017.2
20260504171847 83 211 1.0 2.0 0.00 0.00 0.00 41 1017.2
20260504171345 82 67 3.0 3.0 0.00 0.00 0.00 41 1017.2
20260504170842 80 41 1.0 2.0 0.00 0.00 0.00 43 1017.2
20260504170338 82 341 2.0 2.0 0.00 0.00 0.00 41 1017.3
20260504160257 80 154 3.0 8.0 0.00 0.00 0.00 48 1018.1
20260504150722 79 146 1.0 5.0 0.00 0.00 0.00 52 1018.3
20260504150219 79 36 1.0 2.0 0.00 0.00 0.00 53 1018.4
20260504141148 77 115 0.0 3.0 0.00 0.00 0.00 60 1018.4
20260504140645 77 99 0.0 2.0 0.00 0.00 0.00 61 1018.4
20260504140141 76 80 1.0 2.0 0.00 0.00 0.00 62 1018.3
20260504130609 73 129 0.0 0.0 0.00 0.00 0.00 72 1018.0
20260504130106 72 99 0.0 1.0 0.00 0.00 0.00 73 1017.9
20260504110457 56 172 0.0 0.0 0.00 0.00 0.00 97 1017.5
20260504100413 56 164 0.0 0.0 0.00 0.00 0.00 96 1017.0
20260504081806 58 167 0.0 0.0 0.00 0.00 0.00 95 1017.1
20260504081303 58 162 0.0 0.0 0.00 0.00 0.00 95 1017.1
20260504080759 58 167 0.0 0.0 0.00 0.00 0.00 94 1017.1
20260504080255 58 167 0.0 0.0 0.00 0.00 0.00 94 1017.3
20260504070223 59 164 0.0 0.0 0.00 0.00 0.00 93 1017.4
20260504060144 59 174 0.0 0.0 0.00 0.00 0.00 91 1017.5
20260504050612 61 167 0.0 0.0 0.00 0.00 0.00 89 1018.1
20260504050109 61 167 0.0 0.0 0.00 0.00 0.00 88 1018.1
20260504045606 61 167 0.0 0.0 0.00 0.00 0.00 88 1018.1
20260504045101 61 174 0.0 0.0 0.00 0.00 0.00 88 1018.2
20260504044559 61 168 0.0 0.0 0.00 0.00 0.00 87 1018.4
20260504044055 62 174 0.0 0.0 0.00 0.00 0.00 87 1018.4
20260504043553 62 168 0.0 0.0 0.00 0.00 0.00 86 1018.3
20260504043050 62 153 0.0 0.0 0.00 0.00 0.00 86 1018.2
20260504042547 62 177 0.0 0.0 0.00 0.00 0.00 86 1018.3
20260504042044 62 168 0.0 0.0 0.00 0.00 0.00 86 1018.5
20260504041539 62 177 0.0 0.0 0.00 0.00 0.00 85 1018.4
20260504041036 63 168 0.0 0.0 0.00 0.00 0.00 85 1018.6
20260504040533 63 164 0.0 0.0 0.00 0.00 0.00 85 1018.5
20260504040030 63 150 0.0 0.0 0.00 0.00 0.00 84 1018.3
20260504035527 63 156 0.0 0.0 0.00 0.00 0.00 83 1018.5
20260504035023 64 160 0.0 0.0 0.00 0.00 0.00 82 1018.7
20260504034521 64 164 0.0 0.0 0.00 0.00 0.00 82 1018.7
20260504034018 64 170 0.0 0.0 0.00 0.00 0.00 81 1018.7
20260504033516 64 164 0.0 0.0 0.00 0.00 0.00 80 1018.6
20260504033013 65 164 0.0 0.0 0.00 0.00 0.00 80 1018.6
20260504032509 65 164 0.0 0.0 0.00 0.00 0.00 80 1018.6
20260504032006 65 156 0.0 0.0 0.00 0.00 0.00 79 1018.5
20260504031503 66 164 0.0 1.0 0.00 0.00 0.00 77 1018.7
20260504031000 66 164 0.0 0.0 0.00 0.00 0.00 77 1018.6
20260504030457 67 151 0.0 0.0 0.00 0.00 0.00 77 1018.4
20260504025953 67 150 0.0 0.0 0.00 0.00 0.00 75 1018.5
20260504025450 67 157 0.0 0.0 0.00 0.00 0.00 75 1018.1
20260504024947 68 155 0.0 0.0 0.00 0.00 0.00 74 1018.4
20260504024444 68 145 0.0 1.0 0.00 0.00 0.00 73 1018.2
20260504023941 68 151 0.0 0.0 0.00 0.00 0.00 74 1018.1
20260504023437 69 131 0.0 1.0 0.00 0.00 0.00 72 1018.0
20260504022933 69 159 0.0 0.0 0.00 0.00 0.00 73 1018.0
20260504022429 69 125 0.0 0.0 0.00 0.00 0.00 71 1018.2
20260504021926 69 150 0.0 0.0 0.00 0.00 0.00 75 1017.9
20260504021423 68 158 0.0 0.0 0.00 0.00 0.00 76 1018.1
20260504020921 68 149 0.0 1.0 0.00 0.00 0.00 77 1017.8
20260504020417 68 149 0.0 0.0 0.00 0.00 0.00 76 1018.0
20260504015914 68 154 0.0 0.0 0.00 0.00 0.00 77 1018.0
20260504015410 68 150 0.0 1.0 0.00 0.00 0.00 78 1018.0
20260504014906 68 160 0.0 0.0 0.00 0.00 0.00 77 1017.7
20260504014402 68 136 0.0 1.0 0.00 0.00 0.00 78 1017.6
20260504013859 68 162 0.0 0.0 0.00 0.00 0.00 77 1017.6
20260504013357 68 155 0.0 0.0 0.00 0.00 0.00 77 1017.5
20260504012853 68 162 0.0 0.0 0.00 0.00 0.00 77 1017.6
20260504012351 68 164 0.0 0.0 0.00 0.00 0.00 77 1017.2
20260504011849 68 132 0.0 0.0 0.00 0.00 0.00 77 1017.2
20260504011345 68 144 0.0 1.0 0.00 0.00 0.00 77 1016.9
20260504010841 69 161 0.0 0.0 0.00 0.00 0.00 76 1017.1
20260504010337 68 172 0.0 0.0 0.00 0.00 0.00 76 1016.9
20260504005834 68 163 0.0 0.0 0.00 0.00 0.00 77 1016.8
20260504005330 68 168 0.0 0.0 0.00 0.00 0.00 77 1016.7
20260504004828 68 156 0.0 0.0 0.00 0.00 0.00 76 1016.7
20260504004326 69 151 0.0 0.0 0.00 0.00 0.00 76 1016.5
20260504003822 69 158 0.0 0.0 0.00 0.00 0.00 75 1016.5
20260504003319 69 166 0.0 1.0 0.00 0.00 0.00 74 1016.7
20260504002816 69 176 0.0 0.0 0.00 0.00 0.00 73 1016.4
20260504002312 70 194 0.0 0.0 0.00 0.00 0.00 72 1016.3
20260504001810 71 161 0.0 0.0 0.00 0.00 0.00 71 1016.3
20260504001307 71 158 0.0 0.0 0.00 0.00 0.00 70 1016.3
20260504000804 71 159 0.0 0.0 0.00 0.00 0.00 69 1016.2
20260504000301 72 152 0.0 0.0 0.00 0.00 0.00 68 1016.4
20260503235759 73 158 0.0 0.0 0.00 0.00 0.00 65 1016.4
20260503235256 73 159 0.0 0.0 0.00 0.00 0.00 65 1016.4
20260503234753 73 195 0.0 0.0 0.00 0.00 0.00 63 1016.5
20260503234251 74 191 0.0 1.0 0.00 0.00 0.00 62 1016.2
20260503233748 74 211 1.0 2.0 0.00 0.00 0.00 62 1016.2
20260503233244 74 190 0.0 1.0 0.00 0.00 0.00 61 1016.4
20260503232741 74 296 1.0 1.0 0.00 0.00 0.00 61 1016.2
20260503232238 75 245 1.0 1.0 0.00 0.00 0.00 60 1016.4
20260503231736 75 241 2.0 2.0 0.00 0.00 0.00 60 1016.1